Location: Iesi
(43.5167°N, 13.2333°E)
Time: 02:59:34
(UTC+00:00)

BREEZE-M DEB (TANK) - Pass Details

Date: 08 August 2020
Orbit: 319 x 16292 km, 49.4° (Epoch: 27 September)

Event Time Altitude Azimuth Distance (km) Brightness Sun altitude
Rises 20:35:56 0° 282° (WNW) 2,222 6.3 -20.7°
Reaches altitude 10° 20:37:21 10° 291° (WNW) 1,575 5.5 -20.9°
Maximum altitude 20:40:17 42° 6° (N) 995 3.9 -21.2°
Drops below altitude 10° 20:48:17 10° 77° (ENE) 4,291 6.6 -22.1°
Sets 20:55:16 0° 83° (E) 7,217 7.7 -22.9°
